SL-16 DEB, 23709

Orbit data source: Space-Track

SL-16 DEB, 23709 is space debris in LEO originally from a launch on Tue, 31 Oct 1995 UTC launched from the Tyuratam Missile And Space Complex (TTMTR). Debris objects in space refer to the collection of defunct objects orbiting the Earth. Examples of debris include non-operational satellites, rocket bodies, and fragments generated from explosions, collisions, or faulty payload assembly.

Loading next visibility...
Identifier
23709, 1995-058F
Orbit
LEO
Country
Flag of CISCIS
Related business
Manufacturer
Yuzhnoe
Mission
Spacecraft
Bus & Motor
SEP MOTOR COVER, Unknown motor
Mass
~0 kg wet, ~1 kg dry
Launch date (UTC)
1995-10-31 (30 years ago)
Launch vehicle
Unknown
Launch site
Tyuratam Missile And Space Complex (TTMTR)
Object type
Payload
Rocket body
Debris
Shape & HBR
Unknown
Radar Cross Section
Small (<0.1 m²)

Expand to show TLE details & history
Last TLE update: 19 hours ago

TLE from 19 hours ago
0 SL-16 DEB
1 23709U 95058F   25260.50559184  .00000097  00000-0  12735-3 0  9997
2 23709  71.0354 278.0486 0196642  20.4004  92.6410 13.74701566498256
Epoch: 2025-09-17T12:08Z
TLE epoch observation values (Epoch: 2025-09-17T12:08:03.134Z)
Latitude
58.87662°
Longitude
-115.12926°
Altitude
1,001.668 km
Speed
7.352 km/s
True Right ascension
04h 14m 15s
True Declination
58° 43' 45"
Sunlit
Object was in daylight at epoch
Visualization orbit readout
Latitude
Unknown
Longitude
Unknown
Altitude
Unknown
Speed
Unknown
Apparent Right ascension
Unknown
Apparent Declination
Unknown
Sunlit
N/A
Visualization observer readout
Local Sidereal Time
00:21:47
Azimuth
Unknown
Elevation
Unknown
Doppler factor
Unknown
Orbital elements
Apogee altitude
1,125.406 km
Perigee altitude
835.994 km
Semi-major axis
7,358.837 km
Eccentricity
0.01966
Inclination
71.0354°
RAAN
278.0486°
Arg. of periapsis
20.4004°
True anomaly
94.88883°
Mean anomaly
92.641°
Eccentric anomaly
93.76524°
Mean motion
3.43819 °/min
Orbital period
104.71 mins
BSTAR
0.00012735
Loading maneuver chart data...
Computing Atmospheric mass density...
Loading historical data...
Loading historical data...
Loading historical data...
Loading historical data...
Loading historical data...
Loading historical data...
Loading historical data...

Documentation

Showing up to 5 results
|